Location: ??????
(30.5519°N, 47.7720°E)
Time: 18:05:20
(UTC+00:00)

Cosmos 1346 Rocket - Pass Details

Date: 24 January 2021
Orbit: 532 x 546 km, 81.2° (Epoch: 01 March)

Event Time Altitude Azimuth Distance (km) Brightness Sun altitude
Rises 15:20:46 0° 170° (S) 2,658 6.4 -13.6°
Reaches altitude 10° 15:23:01 10° 161° (SSE) 1,772 5.4 -14.1°
Maximum altitude 15:26:37 37° 94° (E) 836 3.2 -14.9°
Enters shadow 15:28:33 22° 41° (NE) 1,185 4.0 -15.3°
